Regional Weather Roundup
Issued by NWS Sterling, VA

Home | Current Version | Previous Version | Text Only | Print | Product List | Glossary Off
Versions: 1 2 3 4 5 6 7 8 9 10 11 12 13 14 15 16 17 18 19 20 21 22 23 24 25 26 27 28 29 30 31 32 33 34 35 36 37 38 39 40 41 42 43 44 45 46 47 48 49 50

000
ASUS41 KLWX 260810
RWRLWX

REGIONAL WEATHER ROUNDUP
NATIONAL WEATHER SERVICE BALTIMORE MD/WASHINGTON DC
400 AM EDT THU MAR 26 2015

Note: "FAIR" indicates few or no clouds below 12,000 feet
with no significant weather and/or obstructions to visibility.
 TC=TEMPERATURE CELSIUS

 * =Non NWS site. Station does not report precipitation (e.g. rain,
    snow, etc.), thunder, or fog.

DCZ001-MDZ009-015-VAZ040>042-051-053>054-260900-
WASHINGTON METRO

CITY           SKY/WX    TMP DP  RH WIND       PRES   REMARKS
WASHINGTON NAT CLOUDY    50  40  68 S9        30.05F
DULLES         CLOUDY    50  39  66 S9        30.03F
ANDREWS AFB    CLOUDY    47  39  74 SW7       30.03F
FT BELVOIR     CLOUDY    48  39  71 CALM      30.05F
QUANTICO       CLOUDY    49  43  80 S8        30.06F
COLLEGE PARK*  CLOUDY    50  37  62 S3        30.04F
LEESBURG*      MOCLDY    41  37  87 CALM      30.03F
MANASSAS*      CLOUDY    52  41  66 CALM      30.04F
GAITHERSBURG*  CLOUDY    43  36  75 CALM      30.07F

$$

MDZ006>007-011-014-260900-
BALTIMORE METRO

CITY           SKY/WX    TMP DP  RH WIND       PRES   REMARKS
BWI AIRPORT    MOCLDY    41  36  82 CALM      30.04F
MD SCIENCE CTR   N/A     44  36  73 MISG      30.04F
MARTIN STATE   PTCLDY    41  37  87 CALM      30.07S
ANNAPOLIS      PTCLDY    43  39  86 CALM      30.05F

$$

MDZ012-015-019>023-260900-
MARYLAND EASTERN SHORE

CITY           SKY/WX    TMP DP  RH WIND       PRES   REMARKS
OCEAN CITY     PTCLDY    48  47  96 SW8       30.08F
SALISBURY      PTCLDY   N/A N/A N/A SW7       30.07F HAZE
BAY BRIDGE AP*   N/A     43  41  93 S3        30.05F
CAMBRIDGE*     MOCLDY    45  41  87 SE3       30.06F
EASTON*        CLEAR     43  43 100 CALM      30.09F

$$

MDZ017>025-260900-
SOUTHERN MARYLAND

CITY           SKY/WX    TMP DP  RH WIND       PRES   REMARKS
PATUXENT RIVER CLOUDY    45  40  82 CALM      30.06F
ST INIGOES     MOCLDY    43  39  86 CALM      30.06F
LEONARDTOWN*   MOCLDY    45  39  81 CALM      30.07F

$$

MDZ003>005-260900-
NORTH CENTRAL MARYLAND

CITY           SKY/WX    TMP DP  RH WIND       PRES   REMARKS
FREDERICK*     MOCLDY    36  32  87 CALM      30.06F
HAGERSTOWN APT PTCLDY    36  30  79 NW5       30.02F
WESTMINSTER*   PTCLDY    39  36  87 CALM      30.02F

$$

MDZ501>502-260900-
WESTERN MARYLAND

CITY           SKY/WX    TMP DP  RH WIND       PRES   REMARKS
OAKLAND*       MOCLDY    48  48 100 S7        29.96F
CUMBERLAND*    MOCLDY    39  36  87 CALM      30.03F

$$

VAZ025>031-260900-
SHENANDOAH VALLEY

CITY           SKY/WX    TMP DP  RH WIND       PRES   REMARKS
WINCHESTER*    MOCLDY    43  37  81 CALM      30.01F
FRONT ROYAL*   PTSUNNY   55  50  82 SW6       29.99F
LURAY*         CLOUDY    55  52  88 S8        30.01F
NEW MARKET*    CLOUDY    47  44  90 CALM      30.01F
STAUNTON*      CLOUDY    51  47  83 CALM      30.04F
WAYNESBORO*    CLOUDY    50  48  92 W8        30.02F

$$

WVZ021-048>050-054>055-260900-
EASTERN WEST VIRGINIA PANHANDLE

CITY           SKY/WX    TMP DP  RH WIND       PRES   REMARKS
MARTINSBURG    MOCLDY    39  34  82 CALM      30.02F
PETERSBURG*    MOCLDY    47  43  86 W3        29.99F

$$

VAZ036>039-050-260900-
CENTRAL FOOTHILLS

CITY           SKY/WX    TMP DP  RH WIND       PRES   REMARKS
CHARLOTTESVILL CLOUDY    49  41  74 CALM      30.03F
CULPEPER*      CLOUDY    52  43  71 CALM      30.04F
ORANGE*        CLOUDY    52  43  71 CALM      30.06F
GORDONSVILLE*  CLOUDY    49  40  72 SW6       30.04F
WARRENTON*     CLOUDY    52  46  79 CALM      30.03F

$$

VAZ055>057-260900-
NORTH AND CENTRAL PIEDMONT

CITY           SKY/WX    TMP DP  RH WIND       PRES   REMARKS
FREDERICKSBRG* CLOUDY    50  39  65 S5        30.05F
STAFFORD*      CLOUDY    49  37  63 CALM      30.09F

$$

NCZ024-NYZ072-PAZ021-071-VAZ022-071-260900-
OTHER REGIONAL OBSERVATIONS

CITY           SKY/WX    TMP DP  RH WIND       PRES   REMARKS
NEW YORK CITY  CLOUDY    42  38  85 NE3       30.05F FOG
PHILADELPHIA   MOCLDY    42  40  92 CALM      30.06F FOG
PITTSBURGH     CLOUDY    43  41  93 N3        29.93F
ROANOKE        CLOUDY    50  42  74 CALM      30.06F
RICHMOND       LGT RAIN  52  44  74 CALM      30.06F
RALEIGH        FOG       61  57  88 E7        30.02F VSB 1/2

$$

ANZ530>537-260900-
MARINE OBSERVATIONS

STATION/POSITION TIME  TEMP    WIND        PRES
                       AIR SEA DIR/SP/G
                 (UTC) (F)     (DEG/KT/KT) (MB)
THOMAS PT LIGHT  0800                        N/A
BALT KEY BRIDGE  0700   42     360/  3/  3 1018.0F
COVE POINT       0700   44     180/  8/  8 1018.5F
LEWISETTA        0700   47 46              1018.6F
SOLOMONS ISLAND  0700      40                N/A
PINEY POINT      0700          140/  3/  4   N/A

$$



USA.gov is the U.S. government's official web portal to all federal, state and local government web resources and services.